Location: Isola Pescaroli
(45.0500°N, 10.1667°E)
Time: 00:24:44
(UTC+00:00)

SL-4 R/B - Pass Details

Date: 23 June 2021
Orbit: 428 x 662 km, 51.6° (Epoch: 29 July)

Event Time Altitude Azimuth Distance (km) Brightness Sun altitude
Rises 19:52:39 0° 218° (SW) 2,843 5.6 -6.6°
Reaches altitude 10° 19:55:06 10° 211° (SSW) 1,904 4.6 -6.9°
Maximum altitude 19:59:10 41° 141° (SE) 820 2.4 -7.5°
Drops below altitude 10° 20:02:58 10° 71° (ENE) 1,774 4.4 -7.9°
Sets 20:05:11 0° 64° (ENE) 2,623 5.3 -8.2°
